Terminal Aerodrome Forecast
Issued by NWS Billings, MT

Home | Current Version | Previous Version | Text Only | Print | Product List | Glossary On
Versions: 1 2 3 4 5 6 7 8 9 10 11 12
000
FTUS45 KBYZ 260535
TAFSHR
TAF
KSHR 260535Z 2606/2706 23006KT P6SM FEW100 BKN200
     FM261800 32012G22KT P6SM SCT100 BKN150
     FM270200 32008KT P6SM SCT100 BKN150=

USA.gov is the U.S. government's official web portal to all federal, state and local government web resources and services.